Regional Weather Roundup
Issued by NWS Cleveland, OH

Home | Current Version | Previous Version | Text Only | Print | Product List | Glossary Off
Versions: 1 2 3 4 5 6 7 8 9 10 11 12 13 14 15 16 17 18 19 20 21 22 23 24 25 26 27 28 29 30 31 32 33 34 35 36 37 38 39 40 41 42 43 44 45 46 47 48 49 50

881
ASUS41 KCLE 221300
RWRCLE
OHIO REGIONAL WEATHER ROUNDUP
NATIONAL WEATHER SERVICE WILMINGTON, OH
800 AM EST SUN JAN 22 2017

NOTE: "FAIR" INDICATES FEW OR NO CLOUDS BELOW 12,000 FEET WITH NO
SIGNIFICANT WEATHER AND/OR OBSTRUCTIONS TO VISIBILITY.

OHZ001>008-015>018-024>027-034-035-043-044-221400-
   NORTHWEST OHIO

CITY           SKY/WX    TMP DP  RH WIND       PRES   REMARKS
DEFIANCE       FOG       44  43  96 CALM      29.59S VSB 1/2
FINDLAY        MOCLDY    46  44  93 S7        29.60R FOG
TOLEDO EXPRESS LGT RAIN  45  45 100 CALM      29.60R FOG
TOLEDO EXEC    LGT RAIN  45  45 100 N3        29.63R FOG
LIMA           FAIR      46  46 100 SE8       29.60R
$$

OHZ009>014-019>023-028>033-038-089-221400-
   NORTHEAST OHIO

CITY           SKY/WX    TMP DP  RH WIND       PRES   REMARKS
CLE-HOPKINS    MOCLDY    50  46  86 SE3       29.65S
CLE-LAKEFRONT  FAIR      52  49  89 SE7       29.62R
CUY CO. ARPT   CLOUDY    52  50  93 CALM      29.64R
LORAIN-ELYRIA  FOG       45  43  93 CALM      29.63S VSB 1/4
ASHTABULA      MOCLDY    50  49  96 CALM      29.64S
AKRON-CANTON   MOCLDY    49  46  90 SE3       29.64R FOG
WOOSTER        NOT AVBL
MANSFIELD      FAIR      47  47 100 S3        29.63R
YOUNGSTOWN     MOCLDY    47  47 100 E5        29.64R
$$

OHZ042-051>053-060>062-070>072-077>081-221400-
  SOUTHWEST OHIO

CITY           SKY/WX    TMP DP  RH WIND       PRES   REMARKS
CINC-COVINGTON CLOUDY    48  47  96 E6        29.57F
CINC-LUNKEN    FOG       41  41 100 CALM      29.60S VSB 1/2
HAMILTON       FOG       42  42 100 VRB3      29.60S VSB 1
DAYTON         NOT AVBL
WRIGHT-PAT AFB NOT AVBL
DAYTON GENERAL MOCLDY    47  46  97 E6        29.59F
WILMINGTON     FAIR      49  48  97 E5        29.59F
$$

OHZ036-037-039>041-045>050-054>059-063>069-073>076-082>088-221400-
  CENTRAL AND SOUTHEAST OHIO

CITY           SKY/WX    TMP DP  RH WIND       PRES   REMARKS
COLUMBUS       CLOUDY    49  47  93 E5        29.63R
OSU AIRPORT    CLOUDY    47  47 100 E5        29.62S FOG
BOLTON FIELD   NOT AVBL
RICKENBACK AFB NOT AVBL
NEWARK         CLOUDY    43  42  97 CALM      29.63S FOG
MARION         FOG       39  39 100 SE6       29.63R VSB 1/4
LANCASTER      FOG       45  44  97 CALM      29.62F VSB 1/2
ZANESVILLE     CLOUDY    49  48  97 CALM      29.63R
NEW PHILLY     FOG       47  47 100 CALM      29.65R VSB 1/2
$$




USA.gov is the U.S. government's official web portal to all federal, state and local government web resources and services.